[[{"header":{"parameterUnit":"m.s-1","parameterCategory":1,"la1":30.2991,"la2":30.254,"lo1":-89.0895,"lo2":-89.0444,"dx":0.0017,"dy":0.0017,"nx":28,"ny":28,"refTime":"2023-01-21T15:00:00:Z","depth":0,"parameterNumber":2,"parameterNumberName":"U-component_of_WINDS"},"data":[0,0,0,0,0,0,0,0,0,0,0,0,0,0,0,0,0,0,0,0,0,0,0,0,0,0,0,0,0,0,0,0,0,0,0,0,0,0,0,0,0,0,0,0,0,0,0,0,0,0,0,0,0,0,0,0,0,0,3.8193,3.8193,0,3.821,3.821,3.821,3.8126,3.8124,3.8121,3.8119,3.8138,3.8141,3.8144,0,0,0,0,0,0,0,0,0,0,0,0,0,3.8091,3.8093,3.8193,3.8193,3.8194,3.821,3.821,3.821,3.8127,3.8124,3.8121,3.8118,3.8137,3.8141,3.8144,0,0,0,0,0,0,0,0,0,0,0,0,0,3.8124,3.8094,3.8193,3.8154,3.815,3.821,3.821,3.8211,3.8127,3.8124,3.812,3.8117,3.8136,3.814,3.8144,3.8243,0,0,3.8157,3.8159,0,0,0,0,0,0,0,0,3.8123,3.8128,3.8159,3.8157,3.8153,3.8162,3.8181,3.8222,3.8128,3.8136,3.8119,3.8115,3.8149,3.8152,3.8163,3.8244,3.8245,3.8158,3.816,3.8162,3.8163,0,0,0,0,0,0,0,3.812,3.8127,3.82,3.816,3.8156,3.8136,3.8137,3.8188,3.8163,3.8135,3.8129,3.8132,3.8147,3.816,3.8163,3.8245,3.8157,3.8161,3.8164,3.8165,3.8409,3.8412,0,0,0,0,0,0,3.8123,3.8126,3.8199,3.82,3.8128,3.8141,3.8142,3.8163,3.8162,3.8159,3.8135,3.8128,3.8154,3.8158,3.8164,3.828,3.8162,3.8166,3.8168,3.8405,3.841,3.8414,0,0,0,0,0,0,3.8121,3.813,3.8199,3.8161,3.8169,3.8146,3.8171,3.8165,3.8178,3.8162,3.8158,3.8153,3.8152,3.8158,3.8224,3.8279,3.8168,3.8171,3.84,3.8406,3.8412,3.8513,0,0,0,0,0,0,3.8119,3.813,3.8167,3.8163,3.8171,3.8259,3.8175,3.8168,3.8185,3.8176,3.8178,3.8174,3.8149,3.8218,3.8228,3.8283,3.8175,3.8395,3.8403,3.841,3.8505,3.8522,3.8536,0,0,0,0,0,3.8115,3.8195,3.8169,3.8179,3.8216,3.8262,3.8267,3.8236,3.819,3.8227,3.8217,3.8174,3.8272,3.8226,3.8236,3.8293,3.8391,3.8401,3.8409,3.8498,3.8518,3.8536,0,0,0,0,0,0,3.8207,3.8194,3.8165,3.8246,3.8256,3.8248,3.8294,3.8258,3.8282,3.8272,3.8233,3.8235,3.8308,3.8307,3.8256,3.8389,3.8324,3.8335,3.8387,3.8407,3.8422,3.8422,3.8178,0,0,0,0,0,3.8236,3.8274,3.8261,3.8333,3.834,3.8316,3.8335,3.831,3.8319,3.8323,3.8317,3.8328,3.8361,3.8384,3.8413,3.8504,3.8504,3.8548,3.8564,3.8577,3.8588,3.8637,3.8657,3.8443,3.8443,3.8443,0,0,3.8298,3.8295,3.8322,3.8352,3.8356,3.8397,3.832,3.8366,3.8396,3.833,3.8392,3.8389,3.8398,3.8478,3.8512,3.8479,3.8647,3.8589,3.8599,3.8603,3.8648,3.8668,3.8686,3.8449,3.8448,3.8447,0,0,3.8431,3.8433,3.8494,3.85,3.8508,3.8491,3.8506,3.8504,3.8499,3.8561,3.8512,3.8548,3.8605,3.8614,3.8626,3.8764,3.8725,3.8774,3.8857,3.8905,3.8922,3.8937,3.8987,3.9005,3.8785,3.8785,3.8785,0,3.8507,3.8565,3.853,3.8579,3.8594,3.8535,3.8598,3.8605,3.8623,3.8635,3.8598,3.8669,3.8671,3.8752,3.8786,3.8797,3.8814,3.8774,3.8922,3.8937,3.895,3.8997,3.9016,3.8791,3.879,3.879,3.8789,0,3.8659,3.87,3.8748,3.8767,3.8787,3.8843,3.8816,3.8841,3.8815,3.8803,3.8867,3.8868,3.8897,3.8914,3.8889,3.8992,3.8971,3.8929,3.8862,3.8977,3.9021,3.9039,3.8799,3.8797,3.8795,3.8794,0,0,3.885,3.8848,3.8866,3.8874,3.8879,3.891,3.8964,3.8991,3.9014,3.9028,3.9073,3.9123,3.9084,3.9098,3.9073,3.9115,3.9225,3.9067,3.9067,3.9098,3.934,3.9373,3.9395,3.92,3.9203,3.9205,3.934,0,3.8982,3.9072,3.9041,3.9134,3.9172,3.9117,3.9164,3.9172,3.9163,3.9194,3.9184,3.922,3.9165,3.9173,3.9213,3.9204,3.9274,3.9193,3.9242,3.9244,3.9242,3.9417,3.9452,3.9579,3.9357,3.9359,3.9361,0,3.9147,3.9167,3.9263,3.9262,3.9277,3.9319,3.9342,3.9373,3.9382,3.9372,3.9388,3.9354,3.9407,3.934,3.9414,3.936,3.9378,3.9376,3.9381,3.9385,3.931,3.9427,3.9618,3.9638,3.9388,3.9386,3.9384,0,3.9278,3.933,3.9394,3.9402,3.9402,3.9433,3.9434,3.9439,3.9458,3.9479,3.9491,3.9518,3.9533,3.9555,3.953,3.9483,3.9608,3.9538,3.9602,3.9603,3.9631,3.963,3.9829,3.9642,3.9641,3.9641,3.964,0,3.9429,3.949,3.9453,3.9493,3.956,3.9525,3.9593,3.9588,3.9593,3.9631,3.9585,3.9623,3.9587,3.9621,3.9602,3.9666,3.9673,3.9668,3.9662,3.9672,3.9673,3.9684,3.9675,3.9646,3.9645,3.9644,3.9643,0,3.9588,3.9565,3.9632,3.9626,3.9626,3.9676,3.9671,3.9708,3.9695,3.9744,3.9754,3.9734,3.9772,3.9749,3.9788,3.9775,3.9859,3.9841,3.9856,3.9852,3.9917,3.9912,4.0131,4.0159,3.9953,3.9955,3.9956,0,3.9686,3.9731,3.973,3.9752,3.9757,3.9793,3.9812,3.9779,3.9801,3.9814,3.985,3.9884,3.9909,3.9973,3.9962,3.9992,3.9975,4.005,3.9979,3.9989,3.9977,3.9976,3.998,4.0064,4.0067,4.0069,4.007,0,3.9862,3.9849,3.9878,3.9903,3.9927,3.9945,3.996,3.9981,3.9948,3.9975,4.0013,4.0033,4.0072,4.0107,4.0132,4.0134,4.0098,4.0092,4.0109,4.0121,4.0128,4.0126,3.9896,4.0088,4.0086,4.0085,4.0084,4.0083,3.9995,4.0033,4.0038,4.0072,4.0079,4.0094,4.0129,4.012,4.0151,4.018,4.0159,4.0204,4.0212,4.0242,4.0249,4.0285,4.0255,4.0278,4.0285,4.0291,4.0301,4.0122,4.0289,4.0289,4.0288,4.0288,4.0287,0,4.017,4.017,4.0202,4.0223,4.025,4.0212,4.0227,4.0252,4.0292,4.0302,4.0328,4.0372,4.0406,4.0398,4.0429,4.0459,4.0443,4.0468,4.0466,4.0467,4.0325,4.0309,4.048,4.048,4.048,4.048,4.048,4.048,4.0264,4.0328,4.0315,4.0382,4.0382,4.0425,4.0437,4.0451,4.0459,4.051,4.0537,4.0532,4.0535,4.0565,4.0595,4.0592,4.0606,4.0637,4.0628,4.0496,4.0477,4.0459,4.0443,4.064,4.064,4.0767,4.0768,4.0769]},{"header":{"parameterUnit":"m.s-1","parameterCategory":1,"la1":30.2991,"la2":30.254,"lo1":-89.0895,"lo2":-89.0444,"dx":0.0017,"dy":0.0017,"nx":28,"ny":28,"refTime":"2023-01-21T15:00:00:Z","depth":0,"parameterNumber":3,"parameterNumberName":"V-component_of_WINDS"},"data":[0,0,0,0,0,0,0,0,0,0,0,0,0,0,0,0,0,0,0,0,0,0,0,0,0,0,0,0,0,0,0,0,0,0,0,0,0,0,0,0,0,0,0,0,0,0,0,0,0,0,0,0,0,0,0,0,0,0,-0.7748,-0.7749,0,-0.7832,-0.7833,-0.7834,-0.7835,-0.7833,-0.7832,-0.7831,-0.7921,-0.7925,-0.7928,0,0,0,0,0,0,0,0,0,0,0,0,0,-0.7592,-0.7595,-0.7748,-0.7749,-0.775,-0.7832,-0.7833,-0.7834,-0.7835,-0.7833,-0.7832,-0.7831,-0.792,-0.7924,-0.7928,0,0,0,0,0,0,0,0,0,0,0,0,0,-0.7666,-0.7596,-0.7748,-0.776,-0.7762,-0.7832,-0.7833,-0.7834,-0.7835,-0.7833,-0.7832,-0.783,-0.7919,-0.7924,-0.7929,-0.7993,0,0,-0.7945,-0.7947,0,0,0,0,0,0,0,0,-0.7662,-0.7672,-0.7757,-0.7759,-0.7761,-0.7821,-0.7811,-0.7888,-0.7835,-0.7807,-0.7831,-0.7829,-0.789,-0.7897,-0.7916,-0.7997,-0.8001,-0.7945,-0.7948,-0.795,-0.7952,0,0,0,0,0,0,0,-0.7657,-0.7669,-0.7781,-0.7758,-0.7761,-0.7763,-0.7772,-0.7826,-0.7857,-0.781,-0.781,-0.782,-0.789,-0.7911,-0.7919,-0.8002,-0.7945,-0.7949,-0.7953,-0.7955,-0.8142,-0.8144,0,0,0,0,0,0,-0.7649,-0.7664,-0.7778,-0.7784,-0.7707,-0.7767,-0.7777,-0.7804,-0.7856,-0.7862,-0.7821,-0.7819,-0.7904,-0.7913,-0.7922,-0.8001,-0.795,-0.7955,-0.7958,-0.814,-0.8143,-0.8145,0,0,0,0,0,0,-0.7645,-0.7659,-0.7775,-0.7724,-0.7739,-0.7771,-0.7802,-0.7806,-0.7827,-0.7864,-0.787,-0.7836,-0.7903,-0.7915,-0.7975,-0.8004,-0.7957,-0.7962,-0.8138,-0.8141,-0.8144,-0.816,0,0,0,0,0,0,-0.7641,-0.7658,-0.7681,-0.7725,-0.7742,-0.7826,-0.7803,-0.7809,-0.7835,-0.7834,-0.7881,-0.7887,-0.7902,-0.7968,-0.798,-0.801,-0.7966,-0.8135,-0.8139,-0.8143,-0.8157,-0.8163,-0.8168,0,0,0,0,0,-0.7635,-0.7683,-0.7682,-0.7696,-0.7771,-0.7827,-0.7837,-0.7853,-0.7838,-0.7862,-0.7887,-0.7885,-0.7999,-0.7974,-0.7988,-0.802,-0.8134,-0.8138,-0.8142,-0.8154,-0.8162,-0.8168,0,0,0,0,0,0,-0.7643,-0.7689,-0.7689,-0.7751,-0.7785,-0.7827,-0.7859,-0.786,-0.79,-0.7898,-0.7917,-0.7927,-0.7988,-0.801,-0.7982,-0.8086,-0.8065,-0.8072,-0.8069,-0.8076,-0.8082,-0.8075,-0.797,0,0,0,0,0,-0.7652,-0.7692,-0.7731,-0.7782,-0.7799,-0.7826,-0.7851,-0.786,-0.7897,-0.7912,-0.7941,-0.7977,-0.8022,-0.805,-0.8093,-0.816,-0.8171,-0.819,-0.8195,-0.82,-0.8206,-0.8245,-0.8254,-0.8159,-0.8159,-0.8159,0,0,-0.7671,-0.7701,-0.7725,-0.7785,-0.7812,-0.7855,-0.7838,-0.7884,-0.7917,-0.7919,-0.7978,-0.8001,-0.8043,-0.8108,-0.8138,-0.8129,-0.8235,-0.8205,-0.8208,-0.8212,-0.825,-0.8259,-0.8267,-0.8162,-0.8161,-0.8161,0,0,-0.7728,-0.7754,-0.78,-0.7828,-0.787,-0.7887,-0.7899,-0.7941,-0.7956,-0.8015,-0.8018,-0.8058,-0.8133,-0.8164,-0.8189,-0.8259,-0.826,-0.8272,-0.8302,-0.834,-0.8347,-0.8354,-0.838,-0.8389,-0.8279,-0.8279,-0.8279,0,-0.7746,-0.7809,-0.7824,-0.787,-0.7897,-0.79,-0.7949,-0.7976,-0.8029,-0.8049,-0.8037,-0.8132,-0.8161,-0.8234,-0.8251,-0.8271,-0.8286,-0.8267,-0.8344,-0.8351,-0.8358,-0.8383,-0.8393,-0.828,-0.828,-0.828,-0.8279,0,-0.7831,-0.7875,-0.7908,-0.7959,-0.7989,-0.8036,-0.806,-0.8089,-0.8096,-0.8116,-0.8177,-0.8212,-0.8262,-0.828,-0.8288,-0.8355,-0.8348,-0.834,-0.8319,-0.8368,-0.8392,-0.8402,-0.8282,-0.8281,-0.8281,-0.8281,0,0,-0.7894,-0.7953,-0.7965,-0.7989,-0.8035,-0.8071,-0.8119,-0.8167,-0.8192,-0.823,-0.8272,-0.8336,-0.8329,-0.8358,-0.837,-0.8403,-0.8457,-0.8391,-0.8393,-0.8403,-0.8535,-0.854,-0.8551,-0.8458,-0.846,-0.8461,-0.8531,0,-0.7956,-0.804,-0.8055,-0.8129,-0.8171,-0.8175,-0.8217,-0.8252,-0.8272,-0.8311,-0.8334,-0.838,-0.8367,-0.8385,-0.8418,-0.8443,-0.8484,-0.8439,-0.8499,-0.8501,-0.8488,-0.8563,-0.8569,-0.8634,-0.8541,-0.8542,-0.8543,0,-0.8039,-0.8078,-0.8155,-0.8198,-0.8216,-0.8253,-0.8299,-0.8337,-0.8377,-0.8389,-0.8422,-0.843,-0.8482,-0.8458,-0.8531,-0.85,-0.8526,-0.8543,-0.8546,-0.8552,-0.8525,-0.8573,-0.8655,-0.8664,-0.8558,-0.8557,-0.8556,0,-0.8078,-0.815,-0.8206,-0.8226,-0.8277,-0.8303,-0.8326,-0.8364,-0.8392,-0.8433,-0.8452,-0.8499,-0.8525,-0.8562,-0.8583,-0.8564,-0.8655,-0.8633,-0.8669,-0.8668,-0.8688,-0.8686,-0.8775,-0.8703,-0.8703,-0.8703,-0.8703,0,-0.8146,-0.8194,-0.8224,-0.8259,-0.8313,-0.8331,-0.8385,-0.8407,-0.8441,-0.8482,-0.8489,-0.8527,-0.8552,-0.8595,-0.8612,-0.8671,-0.8682,-0.8695,-0.8699,-0.8695,-0.8693,-0.8712,-0.8708,-0.8706,-0.8705,-0.8705,-0.8704,0,-0.8199,-0.8221,-0.8283,-0.8326,-0.8338,-0.8376,-0.8413,-0.8448,-0.8468,-0.8519,-0.8533,-0.8565,-0.8615,-0.864,-0.8703,-0.8714,-0.8781,-0.8782,-0.8767,-0.8769,-0.8803,-0.88,-0.8908,-0.8924,-0.884,-0.8841,-0.8842,0,-0.8241,-0.8278,-0.8324,-0.8351,-0.8374,-0.8418,-0.8447,-0.8467,-0.8497,-0.8546,-0.8575,-0.8625,-0.8666,-0.8747,-0.8777,-0.8826,-0.8829,-0.8863,-0.8836,-0.8831,-0.883,-0.8828,-0.8833,-0.8868,-0.8869,-0.887,-0.887,0,-0.8314,-0.8323,-0.8364,-0.8409,-0.8443,-0.848,-0.8516,-0.8538,-0.8565,-0.8599,-0.8649,-0.8681,-0.8745,-0.8796,-0.8847,-0.8872,-0.8877,-0.8878,-0.8889,-0.8885,-0.8876,-0.8882,-0.8781,-0.8876,-0.8875,-0.8875,-0.8875,-0.8874,-0.8363,-0.8396,-0.8434,-0.848,-0.8509,-0.8544,-0.8578,-0.8603,-0.8645,-0.8698,-0.8708,-0.8762,-0.8803,-0.8872,-0.8899,-0.8943,-0.8935,-0.8951,-0.8955,-0.8959,-0.8961,-0.8868,-0.8952,-0.8952,-0.8952,-0.8952,-0.8952,0,-0.8437,-0.8462,-0.8503,-0.8554,-0.859,-0.859,-0.863,-0.8661,-0.8709,-0.8746,-0.8786,-0.8846,-0.8895,-0.8929,-0.898,-0.9009,-0.9012,-0.9022,-0.902,-0.9026,-0.8964,-0.895,-0.9018,-0.9018,-0.9018,-0.9018,-0.9018,-0.9018,-0.8479,-0.8536,-0.855,-0.8622,-0.8647,-0.8699,-0.8723,-0.8755,-0.8785,-0.885,-0.8891,-0.8913,-0.895,-0.9003,-0.9049,-0.9058,-0.9077,-0.9087,-0.9096,-0.9037,-0.903,-0.9024,-0.9011,-0.909,-0.9091,-0.9155,-0.9155,-0.9156]}]]